Hourly Data Report for May 12, 2020

All times are specified in Local Standard Time (LST). Add 1 hour to adjust for Daylight Saving Time where and when it is observed.

OTTAWA INTL A
ONTARIO
Current Station Operator: NAVCAN

45°19'00.000" N
75°40'00.000" W
114.90 m
6106001
71628
YOW

Download Data

Hourly Data (May 2020)
Hourly Data Report for May 12, 2020
TIME Temp Definition
°C
Dew Point Definition
°C
Rel Hum Definition
%
Wind Dir Definition
10's deg

Wind Spd Definition
km/h
Visibility Definition
km
Stn Press Definition
kPa
Hmdx Definition


Wind Chill Definition


Weather Definition


00:00 3.0 -12.2 32 33 27 24.1 99.98     LegendNANA
01:00 2.0 -11.1 37 32 14 24.1 100.03     Mostly Cloudy
02:00 1.7 -12.7 34 34 18 24.1 100.04     LegendNANA
03:00 0.2 -12.1 39 33 14 24.1 100.08     LegendNANA
04:00 -2.2 -12.0 47 31 14 24.1 100.12   -7 Clear
05:00 -2.8 -10.9 54 29 10 24.1 100.19   -7 LegendNANA
06:00 -0.1 -8.3 54 25 6 24.1 100.28   -2 LegendNANA
07:00 2.2 -8.2 46 30 10 24.1 100.30     Clear
08:00 3.6 -11.2 33 30 12 24.1 100.32     LegendNANA
09:00 5.2 -12.3 27 30 14 24.1 100.30     LegendNANA
10:00 5.9 -12.0 26 30 20 24.1 100.25     Clear
11:00 6.9 -13.6 22 31 18 24.1 100.21     LegendNANA
12:00 7.8 -12.4 22 30 11 24.1 100.16     LegendNANA
13:00 7.5 -11.9 24 25 28 24.1 100.16     Mostly Cloudy
14:00 6.5 -7.1 37 25 30 24.1 100.21     LegendNANA
15:00 6.3 -6.7 39 20 18 24.1 100.22     LegendNANA
16:00 6.9 -7.8 34 30 12 24.1 100.21     Mostly Cloudy
17:00 6.8 -7.4 35 29 15 24.1 100.25     LegendNANA
18:00 7.0 -6.8 37 25 12 24.1 100.29     LegendNANA
19:00 5.3 -7.9 38 25 13 24.1 100.35     Mainly Clear
20:00 3.1 -6.9 48 24 8 24.1 100.43     LegendNANA
21:00 2.8 -7.5 47 27 10 24.1 100.50     LegendNANA
22:00 1.0 -6.9 56 25 12 24.1 100.59     Clear
23:00 1.1 -6.9 55 25 8 24.1 100.63     LegendNANA

Notes on Data Quality.

Legend

  • E = Estimated
  • M = Missing
  • NA = Not Available*
  • [empty] = Indicates an unobserved value
Date modified: